Location: Meanaryar
(48.4161°N, 4.7315°W)
Time: 16:44:00
(UTC+00:00)

Lacrosse 5 rocket - Pass Details

Date: 18 September 2020
Orbit: 460 x 636 km, 57.0° (Epoch: 29 October)

Event Time Altitude Azimuth Distance (km) Brightness Sun altitude
Rises 21:24:23 0° 294° (WNW) 2,816 6.1 -28.3°
Reaches altitude 10° 21:26:53 10° 306° (NW) 1,943 5.1 -28.6°
Maximum altitude 21:30:43 28° 6° (N) 1,176 3.2 -29.1°
Enters shadow 21:30:46 28° 7° (N) 1,176 3.2 -29.1°
